Find Starlink 33664

NORAD ID: 63415 Int'l Des: 2025-065 Owner: SPXS Country: US Constellation: starlink operational
LEOCIRCULAR

リアルタイム位置

3D地球を読み込み中...

Starlink 33664について

説明を読み込み中...

次回通過

Passes for default location (London). Set your location on the main map for personalized predictions.

高度履歴

Loading altitude history...

軌道要素

1 63415U 25065S 26123.44135586 .00032943 00000-0 12013-2 0 9997
2 63415 42.9987 157.8086 0001456 275.8459 84.2227 15.27581273 61217
Epoch: May 3, 2026 • Age: 22 hours

現在のステータス

高度 484.3 km
速度 7.62 km/s
衛星直下点 -11.31°S, 150.75°E
打ち上げ日 Mar 31, 2025
運用期間 1 years
タイプ internet

技術仕様

分類 Payload
質量 575.00 kg
乾燥質量 530.00 kg
総質量 575.00 kg
長さ 0.30 m
直径 4.10 m
スパン 29.00 m
形状 Box + pan
製造者 SPXS
バスタイプ Starlink V2MO
フェーズステータス In Orbit
所有者/国 SPXS/US

Most Searched